DW8587 Weather Reports


time (UTC)temp
C
wind
direction
speed
KPH
gust
KPH
rain 1hr
cm
rain 24hr
cm
rain mn
cm
humidity
%
barometer
mb
20260504090104 18 248 4.8 12.9 0.00 0.00 0.00 47 1017.4
20260504081603 17 226 4.8 12.9 0.00 0.00 0.00 47 1017.3
20260504044530 11 45 1.6 4.8 0.00 0.00 0.00 75 1016.0
20260504043023 11 46 3.2 8.0 0.00 0.00 0.00 75 1015.9
20260504041519 11 47 4.8 8.0 0.00 0.00 0.00 75 1015.9
20260504040018 11 41 1.6 4.8 0.00 0.00 0.00 75 1015.9
20260504034516 11 41 1.6 3.2 0.00 0.00 0.00 76 1016.0
20260504033015 11 41 1.6 6.4 0.00 0.00 0.00 75 1015.9
20260504031516 11 53 1.6 6.4 0.00 0.00 0.00 76 1015.8
20260504030030 11 18 1.6 4.8 0.00 0.00 0.00 76 1016.0
20260504024510 11 42 4.8 9.7 0.00 0.00 0.00 76 1016.0
20260504023008 11 28 3.2 4.8 0.00 0.00 0.00 76 1016.1
20260504021504 12 26 1.6 4.8 0.00 0.00 0.00 76 1016.1
20260504020002 12 27 1.6 4.8 0.00 0.00 0.00 75 1016.0
20260504014600 13 44 3.2 6.4 0.00 0.00 0.00 74 1016.0
20260504013110 13 44 0.0 3.2 0.00 0.00 0.00 74 1016.1
20260504011557 13 23 3.2 4.8 0.00 0.00 0.00 74 1015.9
20260504010112 13 48 3.2 6.4 0.00 0.00 0.00 74 1015.9
20260504004621 13 48 3.2 6.4 0.00 0.00 0.00 75 1016.0
20260504003054 13 48 1.6 4.8 0.00 0.00 0.00 74 1016.3
20260504001558 13 48 4.8 8.0 0.00 0.00 0.00 74 1016.4
20260504000047 13 329 1.6 4.8 0.00 0.00 0.00 74 1016.6
20260503234548 13 42 1.6 6.4 0.00 0.00 0.00 74 1016.7
20260503233044 13 41 3.2 4.8 0.00 0.00 0.00 73 1016.8
20260503231543 13 40 1.6 4.8 0.00 0.00 0.00 73 1016.8
20260503230041 14 44 1.6 4.8 0.00 0.00 0.00 72 1016.9
20260503224541 14 44 1.6 3.2 0.00 0.00 0.00 71 1016.9
20260503223041 14 44 1.6 4.8 0.00 0.00 0.00 70 1016.9
20260503221542 14 44 1.6 4.8 0.00 0.00 0.00 70 1016.9
20260503220035 15 44 3.2 6.4 0.00 0.00 0.00 68 1016.8
20260503214534 15 103 3.2 4.8 0.00 0.00 0.00 66 1016.7
20260503213044 15 173 0.0 3.2 0.00 0.00 0.00 64 1016.7
20260503211532 16 173 0.0 3.2 0.00 0.00 0.00 61 1016.6
20260503210032 16 173 0.0 3.2 0.00 0.00 0.00 60 1016.5
20260503204546 16 173 0.0 3.2 0.00 0.00 0.00 59 1016.6
20260503203032 16 173 0.0 1.6 0.00 0.00 0.00 57 1016.6
20260503201630 17 173 0.0 1.6 0.00 0.00 0.00 55 1016.5
20260503200029 17 173 0.0 1.6 0.00 0.00 0.00 53 1016.3
20260503194529 17 173 0.0 0.0 0.00 0.00 0.00 52 1016.3
20260503193035 18 173 0.0 1.6 0.00 0.00 0.00 49 1016.1
20260503191528 18 173 0.0 3.2 0.00 0.00 0.00 47 1016.0
20260503190036 18 173 1.6 4.8 0.00 0.00 0.00 47 1015.7
20260503184536 20 169 3.2 11.3 0.00 0.00 0.00 47 1015.6
20260503183027 20 181 6.4 12.9 0.00 0.00 0.00 47 1015.6
20260503181526 20 158 1.6 6.4 0.00 0.00 0.00 45 1015.5
20260503180026 21 202 0.0 3.2 0.00 0.00 0.00 45 1015.5
20260503174525 21 202 0.0 4.8 0.00 0.00 0.00 44 1015.5
20260503173032 21 202 1.6 4.8 0.00 0.00 0.00 43 1015.4
20260503171523 21 205 3.2 6.4 0.00 0.00 0.00 44 1015.5